Simultaneous Nadir Overpasses (SNOs) Predictions

Prediction of SNOs between GOES-16 and TERRA Satellite Orbit:

Table of predicted SNOs for the next 14.0 days since TLE Epoch: 6/6/2025
Index Date Time (GOES-16) GOES-16 Lat,Lon TERRA Lat,Lon Distance(km) Time Diff (sec)
1 06/08/2025 04:17:40 -0.04,-105.64 0.24,-104.15 168.89 80
2 06/08/2025 16:39:50 0.04,-105.95 0.66,-108.90 336.20 80
3 06/10/2025 16:18:06 0.03,-107.00 -0.54,-104.35 301.52 80
4 06/11/2025 04:40:23 -0.03,-107.23 -0.42,-109.13 215.03 80
5 06/13/2025 04:18:38 -0.02,-108.28 0.75,-104.56 422.39 80
6 06/13/2025 16:40:48 0.02,-108.58 0.16,-109.31 82.88 80
7 06/16/2025 04:38:39 -0.01,-109.86 0.08,-109.53 38.25 80
8 06/16/2025 17:00:48 0.01,-110.17 0.89,-114.28 467.12 80
9 06/18/2025 16:39:03 0.01,-111.21 -0.31,-109.71 170.69 80
10 06/19/2025 05:01:20 -0.01,-111.45 -0.61,-114.50 345.56 80
